Time,TemperatureF,DewpointF,PressureIn,WindDirection,WindDirectionDegrees,WindSpeedMPH,WindSpeedGustMPH,Humidity,HourlyPrecipIn,Conditions,Clouds,dailyrainin,SoftwareType,DateUTC
2013-01-26 00:00:00,24.0,20.4,30.12,WNW,283,6.0,7.0,86,0.00,,---,0.00,VWS V14.01,2013-01-26 05:00:00,
2013-01-26 00:05:00,24.1,20.2,30.12,WNW,297,5.0,8.0,85,0.00,,---,0.00,VWS V14.01,2013-01-26 05:05:00,
2013-01-26 00:10:00,24.2,20.4,30.12,NW,309,4.0,7.0,85,0.00,,---,0.00,VWS V14.01,2013-01-26 05:10:00,
2013-01-26 00:15:00,24.2,20.4,30.12,West,271,4.0,11.0,85,0.00,,---,0.00,VWS V14.01,2013-01-26 05:15:00,
2013-01-26 00:20:00,24.1,20.2,30.12,NNW,340,5.0,6.0,85,0.00,,---,0.00,VWS V14.01,2013-01-26 05:20:00,
2013-01-26 00:25:00,24.0,19.9,30.12,WNW,298,5.0,7.0,84,0.00,,---,0.00,VWS V14.01,2013-01-26 05:25:00,
2013-01-26 00:30:00,23.9,19.8,30.12,West,275,5.0,8.0,84,0.00,,---,0.00,VWS V14.01,2013-01-26 05:30:00,
2013-01-26 00:35:00,23.9,19.8,30.12,NW,317,5.0,7.0,84,0.00,,---,0.00,VWS V14.01,2013-01-26 05:35:00,
2013-01-26 00:40:00,23.8,19.7,30.12,NW,310,4.0,7.0,84,0.00,,---,0.00,VWS V14.01,2013-01-26 05:40:00,
2013-01-26 00:45:00,23.8,19.7,30.12,West,272,5.0,8.0,84,0.00,,---,0.00,VWS V14.01,2013-01-26 05:45:00,
2013-01-26 00:50:00,23.7,19.3,30.11,West,272,7.0,10.0,83,0.00,,---,0.00,VWS V14.01,2013-01-26 05:50:00,
2013-01-26 00:55:00,23.6,19.2,30.11,West,279,5.0,6.0,83,0.00,,---,0.00,VWS V14.01,2013-01-26 05:55:00,
2013-01-26 01:00:00,23.6,19.2,30.11,NW,315,7.0,9.0,83,0.00,,---,0.00,VWS V14.01,2013-01-26 06:00:00,
2013-01-26 01:05:00,23.5,19.1,30.11,WNW,286,10.0,11.0,83,0.00,,---,0.00,VWS V14.01,2013-01-26 06:05:00,
2013-01-26 01:10:00,23.5,19.1,30.11,NNW,341,8.0,12.0,83,0.00,,---,0.00,VWS V14.01,2013-01-26 06:10:00,
2013-01-26 01:15:00,23.5,18.8,30.11,West,278,11.0,12.0,82,0.00,,---,0.00,VWS V14.01,2013-01-26 06:15:00,
2013-01-26 01:20:00,23.5,18.8,30.11,NW,314,7.0,9.0,82,0.00,,---,0.00,VWS V14.01,2013-01-26 06:20:00,
2013-01-26 01:25:00,23.5,18.8,30.12,North,5,9.0,11.0,82,0.00,,---,0.00,VWS V14.01,2013-01-26 06:25:00,
2013-01-26 01:30:00,23.6,18.9,30.12,NW,312,7.0,12.0,82,0.00,,---,0.00,VWS V14.01,2013-01-26 06:30:00,
2013-01-26 01:35:00,23.7,19.0,30.12,NW,316,4.0,9.0,82,0.00,,---,0.00,VWS V14.01,2013-01-26 06:35:00,
2013-01-26 01:40:00,23.7,19.0,30.12,NW,317,3.0,7.0,82,0.00,,---,0.00,VWS V14.01,2013-01-26 06:40:00,
2013-01-26 01:45:00,23.7,19.0,30.12,West,277,3.0,7.0,82,0.00,,---,0.00,VWS V14.01,2013-01-26 06:45:00,
2013-01-26 01:50:00,23.7,19.0,30.12,NW,312,5.0,7.0,82,0.00,,---,0.00,VWS V14.01,2013-01-26 06:50:00,
2013-01-26 01:55:00,23.7,19.0,30.12,NW,312,3.0,4.0,82,0.00,,---,0.00,VWS V14.01,2013-01-26 06:55:00,
2013-01-26 02:00:00,23.6,18.9,30.12,West,279,2.0,6.0,82,0.00,,---,0.00,VWS V14.01,2013-01-26 07:00:00,
2013-01-26 02:05:00,23.6,18.9,30.13,WNW,291,4.0,4.0,82,0.00,,---,0.00,VWS V14.01,2013-01-26 07:05:00,
2013-01-26 02:10:00,23.5,18.8,30.12,NW,326,6.0,14.0,82,0.00,,---,0.00,VWS V14.01,2013-01-26 07:10:00,
2013-01-26 02:15:00,23.5,18.5,30.12,WNW,286,5.0,5.0,81,0.00,,---,0.00,VWS V14.01,2013-01-26 07:15:00,
2013-01-26 02:20:00,23.4,18.4,30.12,WNW,289,5.0,6.0,81,0.00,,---,0.00,VWS V14.01,2013-01-26 07:20:00,
2013-01-26 02:25:00,23.3,18.3,30.12,West,267,7.0,7.0,81,0.00,,---,0.00,VWS V14.01,2013-01-26 07:25:00,
2013-01-26 02:30:00,23.2,18.2,30.13,West,281,5.0,7.0,81,0.00,,---,0.00,VWS V14.01,2013-01-26 07:30:00,
2013-01-26 02:35:00,23.2,18.2,30.13,West,281,5.0,8.0,81,0.00,,---,0.00,VWS V14.01,2013-01-26 07:35:00,
2013-01-26 02:40:00,23.2,18.2,30.13,NW,310,8.0,9.0,81,0.00,,---,0.00,VWS V14.01,2013-01-26 07:40:00,
2013-01-26 02:45:00,23.1,18.1,30.13,NNW,328,9.0,9.0,81,0.00,,---,0.00,VWS V14.01,2013-01-26 07:45:00,
2013-01-26 02:50:00,23.0,18.0,30.13,NW,323,4.0,4.0,81,0.00,,---,0.00,VWS V14.01,2013-01-26 07:50:00,
2013-01-26 02:55:00,23.0,18.0,30.13,WSW,257,5.0,6.0,81,0.00,,---,0.00,VWS V14.01,2013-01-26 07:55:00,
2013-01-26 03:00:00,22.9,18.0,30.13,NW,322,3.0,5.0,81,0.00,,---,0.00,VWS V14.01,2013-01-26 08:00:00,
2013-01-26 03:05:00,22.9,18.0,30.14,WNW,296,5.0,6.0,81,0.00,,---,0.00,VWS V14.01,2013-01-26 08:05:00,
2013-01-26 03:10:00,22.8,18.1,30.13,WNW,296,5.0,5.0,82,0.00,,---,0.00,VWS V14.01,2013-01-26 08:10:00,
2013-01-26 03:15:00,22.8,18.1,30.14,NW,317,2.0,5.0,82,0.00,,---,0.00,VWS V14.01,2013-01-26 08:15:00,
2013-01-26 03:20:00,22.8,18.1,30.14,NW,321,3.0,6.0,82,0.00,,---,0.00,VWS V14.01,2013-01-26 08:20:00,
2013-01-26 03:25:00,22.7,18.0,30.14,NNW,339,3.0,3.0,82,0.00,,---,0.00,VWS V14.01,2013-01-26 08:25:00,
2013-01-26 03:30:00,22.7,18.0,30.14,WNW,299,4.0,6.0,82,0.00,,---,0.00,VWS V14.01,2013-01-26 08:30:00,
2013-01-26 03:35:00,22.7,18.0,30.14,WSW,257,5.0,9.0,82,0.00,,---,0.00,VWS V14.01,2013-01-26 08:35:00,
2013-01-26 03:40:00,22.6,17.9,30.14,West,266,2.0,5.0,82,0.00,,---,0.00,VWS V14.01,2013-01-26 08:40:00,
2013-01-26 03:45:00,22.6,17.9,30.14,West,277,6.0,6.0,82,0.00,,---,0.00,VWS V14.01,2013-01-26 08:45:00,
2013-01-26 03:50:00,22.6,17.9,30.14,NNW,327,1.0,4.0,82,0.00,,---,0.00,VWS V14.01,2013-01-26 08:50:00,
2013-01-26 03:55:00,22.5,17.9,30.14,WNW,302,3.0,3.0,82,0.00,,---,0.00,VWS V14.01,2013-01-26 08:55:00,
2013-01-26 04:00:00,22.6,17.9,30.14,NNW,330,2.0,6.0,82,0.00,,---,0.00,VWS V14.01,2013-01-26 09:00:00,
2013-01-26 04:05:00,22.6,17.9,30.14,NW,304,2.0,3.0,82,0.00,,---,0.00,VWS V14.01,2013-01-26 09:05:00,
2013-01-26 04:10:00,22.7,17.8,30.14,NW,308,5.0,6.0,81,0.00,,---,0.00,VWS V14.01,2013-01-26 09:10:00,
2013-01-26 04:15:00,22.8,17.9,30.15,NW,314,3.0,7.0,81,0.00,,---,0.00,VWS V14.01,2013-01-26 09:15:00,
2013-01-26 04:20:00,22.9,18.0,30.15,NW,313,3.0,6.0,81,0.00,,---,0.00,VWS V14.01,2013-01-26 09:20:00,
2013-01-26 04:25:00,23.0,18.0,30.15,WNW,286,5.0,5.0,81,0.00,,---,0.00,VWS V14.01,2013-01-26 09:25:00,
2013-01-26 04:30:00,23.0,18.0,30.16,West,261,3.0,4.0,81,0.00,,---,0.00,VWS V14.01,2013-01-26 09:30:00,
2013-01-26 04:35:00,23.1,18.1,30.16,NW,319,2.0,4.0,81,0.00,,---,0.00,VWS V14.01,2013-01-26 09:35:00,
2013-01-26 04:40:00,23.1,18.1,30.15,NNW,346,2.0,3.0,81,0.00,,---,0.00,VWS V14.01,2013-01-26 09:40:00,
2013-01-26 04:45:00,23.1,17.9,30.15,WNW,294,6.0,7.0,80,0.00,,---,0.00,VWS V14.01,2013-01-26 09:45:00,
2013-01-26 04:50:00,23.2,18.2,30.16,WNW,300,3.0,3.0,81,0.00,,---,0.00,VWS V14.01,2013-01-26 09:50:00,
2013-01-26 04:55:00,23.2,18.0,30.16,NW,318,2.0,2.0,80,0.00,,---,0.00,VWS V14.01,2013-01-26 09:55:00,
2013-01-26 05:00:00,23.3,18.3,30.16,NNW,330,5.0,6.0,81,0.00,,---,0.00,VWS V14.01,2013-01-26 10:00:00,
2013-01-26 05:05:00,23.4,18.4,30.16,NNW,327,6.0,8.0,81,0.00,,---,0.00,VWS V14.01,2013-01-26 10:05:00,
2013-01-26 05:10:00,23.5,18.5,30.16,WNW,284,2.0,7.0,81,0.00,,---,0.00,VWS V14.01,2013-01-26 10:10:00,
2013-01-26 05:15:00,23.5,18.5,30.16,West,269,8.0,8.0,81,0.00,,---,0.00,VWS V14.01,2013-01-26 10:15:00,
2013-01-26 05:20:00,23.5,18.5,30.16,NNW,338,7.0,7.0,81,0.00,,---,0.00,VWS V14.01,2013-01-26 10:20:00,
2013-01-26 05:25:00,23.6,18.4,30.17,West,276,0.0,0.0,80,0.00,,---,0.00,VWS V14.01,2013-01-26 10:25:00,
2013-01-26 05:30:00,23.6,18.4,30.17,WNW,290,1.0,3.0,80,0.00,,---,0.00,VWS V14.01,2013-01-26 10:30:00,
2013-01-26 05:35:00,23.6,18.4,30.17,West,272,4.0,7.0,80,0.00,,---,0.00,VWS V14.01,2013-01-26 10:35:00,
2013-01-26 05:40:00,23.6,18.4,30.17,WNW,284,2.0,4.0,80,0.00,,---,0.00,VWS V14.01,2013-01-26 10:40:00,
2013-01-26 05:45:00,23.7,18.5,30.17,NW,305,4.0,5.0,80,0.00,,---,0.00,VWS V14.01,2013-01-26 10:45:00,
2013-01-26 05:50:00,23.7,18.5,30.17,WNW,302,1.0,3.0,80,0.00,,---,0.00,VWS V14.01,2013-01-26 10:50:00,
2013-01-26 05:55:00,23.8,18.5,30.17,NNW,327,4.0,5.0,80,0.00,,---,0.00,VWS V14.01,2013-01-26 10:55:00,
2013-01-26 06:00:00,23.8,18.5,30.17,WNW,285,5.0,7.0,80,0.00,,---,0.00,VWS V14.01,2013-01-26 11:00:00,
2013-01-26 06:05:00,23.8,18.5,30.17,WNW,302,1.0,3.0,80,0.00,,---,0.00,VWS V14.01,2013-01-26 11:05:00,
2013-01-26 06:10:00,23.8,18.5,30.17,NW,317,2.0,4.0,80,0.00,,---,0.00,VWS V14.01,2013-01-26 11:10:00,
2013-01-26 06:15:00,23.8,18.5,30.18,NNW,342,2.0,3.0,80,0.00,,---,0.00,VWS V14.01,2013-01-26 11:15:00,
2013-01-26 06:20:00,23.8,18.5,30.18,WNW,285,3.0,5.0,80,0.00,,---,0.00,VWS V14.01,2013-01-26 11:20:00,
2013-01-26 06:25:00,23.8,18.5,30.18,WNW,286,3.0,5.0,80,0.00,,---,0.00,VWS V14.01,2013-01-26 11:25:00,
2013-01-26 06:30:00,23.8,18.5,30.18,WNW,290,5.0,6.0,80,0.00,,---,0.00,VWS V14.01,2013-01-26 11:30:00,
2013-01-26 06:35:00,23.8,18.5,30.19,WNW,286,2.0,3.0,80,0.00,,---,0.00,VWS V14.01,2013-01-26 11:35:00,
2013-01-26 06:40:00,23.8,18.8,30.19,NW,309,3.0,5.0,81,0.00,,---,0.00,VWS V14.01,2013-01-26 11:40:00,
2013-01-26 06:45:00,23.8,18.8,30.19,NW,323,3.0,6.0,81,0.00,,---,0.00,VWS V14.01,2013-01-26 11:45:00,
2013-01-26 06:50:00,23.8,18.8,30.19,West,279,3.0,4.0,81,0.00,,---,0.00,VWS V14.01,2013-01-26 11:50:00,
2013-01-26 06:55:00,23.8,18.8,30.19,WNW,298,0.0,2.0,81,0.00,,---,0.00,VWS V14.01,2013-01-26 11:55:00,
2013-01-26 07:00:00,23.8,18.8,30.19,WNW,303,4.0,4.0,81,0.00,,---,0.00,VWS V14.01,2013-01-26 12:00:00,
2013-01-26 07:05:00,23.8,19.1,30.19,NW,318,3.0,9.0,82,0.00,,---,0.00,VWS V14.01,2013-01-26 12:05:00,
2013-01-26 07:10:00,23.8,19.1,30.20,West,260,6.0,8.0,82,0.00,,---,0.00,VWS V14.01,2013-01-26 12:10:00,
2013-01-26 07:15:00,23.8,19.1,30.20,WNW,303,2.0,2.0,82,0.00,,---,0.00,VWS V14.01,2013-01-26 12:15:00,
2013-01-26 07:20:00,23.8,19.1,30.20,NW,306,3.0,3.0,82,0.00,,---,0.00,VWS V14.01,2013-01-26 12:20:00,
2013-01-26 07:25:00,23.8,19.4,30.20,West,267,3.0,5.0,83,0.00,,---,0.00,VWS V14.01,2013-01-26 12:25:00,
2013-01-26 07:30:00,23.8,19.4,30.20,West,275,1.0,4.0,83,0.00,,---,0.00,VWS V14.01,2013-01-26 12:30:00,
2013-01-26 07:35:00,23.9,19.5,30.20,NW,315,7.0,10.0,83,0.00,,---,0.00,VWS V14.01,2013-01-26 12:35:00,
2013-01-26 07:40:00,23.9,19.5,30.20,NW,308,3.0,4.0,83,0.00,,---,0.00,VWS V14.01,2013-01-26 12:40:00,
2013-01-26 07:45:00,23.9,19.5,30.20,NNW,331,2.0,2.0,83,0.00,,---,0.00,VWS V14.01,2013-01-26 12:45:00,
2013-01-26 07:50:00,23.9,19.5,30.21,WNW,283,4.0,6.0,83,0.00,,---,0.00,VWS V14.01,2013-01-26 12:50:00,
2013-01-26 07:55:00,24.0,19.6,30.21,West,263,1.0,1.0,83,0.00,,---,0.00,VWS V14.01,2013-01-26 12:55:00,
2013-01-26 08:00:00,24.0,19.6,30.21,West,265,2.0,6.0,83,0.00,,---,0.00,VWS V14.01,2013-01-26 13:00:00,
2013-01-26 08:05:00,24.1,19.7,30.22,WNW,288,2.0,4.0,83,0.00,,---,0.00,VWS V14.01,2013-01-26 13:05:00,
2013-01-26 08:10:00,24.2,19.8,30.22,WNW,288,1.0,2.0,83,0.00,,---,0.00,VWS V14.01,2013-01-26 13:10:00,
2013-01-26 08:15:00,24.2,19.8,30.22,NW,308,4.0,4.0,83,0.00,,---,0.00,VWS V14.01,2013-01-26 13:15:00,
2013-01-26 08:20:00,24.2,19.8,30.22,NW,317,1.0,4.0,83,0.00,,---,0.00,VWS V14.01,2013-01-26 13:20:00,
2013-01-26 08:25:00,24.2,19.8,30.22,West,281,2.0,2.0,83,0.00,,---,0.00,VWS V14.01,2013-01-26 13:25:00,
2013-01-26 08:30:00,24.2,20.1,30.22,NW,326,2.0,3.0,84,0.00,,---,0.00,VWS V14.01,2013-01-26 13:30:00,
2013-01-26 08:35:00,24.2,20.1,30.22,WNW,289,2.0,3.0,84,0.00,,---,0.00,VWS V14.01,2013-01-26 13:35:00,
2013-01-26 08:40:00,24.2,20.4,30.22,WNW,284,1.0,2.0,85,0.00,,---,0.00,VWS V14.01,2013-01-26 13:40:00,
2013-01-26 08:45:00,24.2,20.4,30.22,NNW,347,3.0,3.0,85,0.00,,---,0.00,VWS V14.01,2013-01-26 13:45:00,
2013-01-26 08:50:00,24.2,20.6,30.23,WNW,294,2.0,2.0,86,0.00,,---,0.00,VWS V14.01,2013-01-26 13:50:00,
2013-01-26 08:55:00,24.2,20.6,30.23,WNW,294,0.0,1.0,86,0.00,,---,0.00,VWS V14.01,2013-01-26 13:55:00,
2013-01-26 09:00:00,24.1,20.8,30.23,WNW,294,0.0,0.0,87,0.00,,---,0.00,VWS V14.01,2013-01-26 14:00:00,
2013-01-26 09:05:00,24.1,20.8,30.23,WNW,294,1.0,1.0,87,0.00,,---,0.00,VWS V14.01,2013-01-26 14:05:00,
2013-01-26 09:10:00,24.2,21.2,30.23,WNW,294,0.0,0.0,88,0.00,,---,0.00,VWS V14.01,2013-01-26 14:10:00,
2013-01-26 09:15:00,24.2,21.2,30.23,WNW,294,0.0,0.0,88,0.00,,---,0.00,VWS V14.01,2013-01-26 14:15:00,
2013-01-26 09:20:00,24.4,21.4,30.24,WNW,294,0.0,1.0,88,0.00,,---,0.00,VWS V14.01,2013-01-26 14:20:00,
2013-01-26 09:25:00,24.3,21.3,30.23,WNW,294,0.0,1.0,88,0.00,,---,0.00,VWS V14.01,2013-01-26 14:25:00,
2013-01-26 09:30:00,24.4,21.6,30.23,WNW,294,0.0,0.0,89,0.00,,---,0.00,VWS V14.01,2013-01-26 14:30:00,
2013-01-26 09:35:00,24.7,21.9,30.24,WNW,294,1.0,2.0,89,0.00,,---,0.00,VWS V14.01,2013-01-26 14:35:00,
2013-01-26 09:40:00,24.8,22.0,30.24,WNW,294,1.0,1.0,89,0.00,,---,0.00,VWS V14.01,2013-01-26 14:40:00,
2013-01-26 09:45:00,24.9,22.1,30.24,WNW,294,0.0,0.0,89,0.00,,---,0.00,VWS V14.01,2013-01-26 14:45:00,
2013-01-26 09:50:00,25.2,22.4,30.24,WNW,294,2.0,2.0,89,0.00,,---,0.00,VWS V14.01,2013-01-26 14:50:00,
2013-01-26 09:55:00,25.3,22.2,30.25,WNW,294,0.0,1.0,88,0.00,,---,0.00,VWS V14.01,2013-01-26 14:55:00,
2013-01-26 10:00:00,25.4,22.4,30.25,WNW,294,1.0,2.0,88,0.00,,---,0.00,VWS V14.01,2013-01-26 15:00:00,
2013-01-26 10:05:00,25.6,22.5,30.25,WNW,294,1.0,2.0,88,0.00,,---,0.00,VWS V14.01,2013-01-26 15:05:00,
2013-01-26 10:10:00,25.5,22.2,30.25,WNW,294,0.0,0.0,87,0.00,,---,0.00,VWS V14.01,2013-01-26 15:10:00,
2013-01-26 10:15:00,25.4,22.4,30.26,WNW,294,1.0,2.0,88,0.00,,---,0.00,VWS V14.01,2013-01-26 15:15:00,
2013-01-26 10:20:00,25.3,22.2,30.26,NNW,332,2.0,2.0,88,0.00,,---,0.00,VWS V14.01,2013-01-26 15:20:00,
2013-01-26 10:25:00,25.3,22.2,30.26,NNW,332,1.0,1.0,88,0.00,,---,0.00,VWS V14.01,2013-01-26 15:25:00,
2013-01-26 10:30:00,25.3,22.2,30.26,NNW,332,0.0,1.0,88,0.00,,---,0.00,VWS V14.01,2013-01-26 15:30:00,
2013-01-26 10:35:00,25.4,22.4,30.26,NNW,333,1.0,2.0,88,0.00,,---,0.00,VWS V14.01,2013-01-26 15:35:00,
2013-01-26 10:40:00,25.5,22.5,30.26,NNW,333,0.0,1.0,88,0.00,,---,0.00,VWS V14.01,2013-01-26 15:40:00,
2013-01-26 10:45:00,25.7,22.6,30.27,NNW,333,2.0,3.0,88,0.00,,---,0.00,VWS V14.01,2013-01-26 15:45:00,
2013-01-26 10:50:00,25.9,22.6,30.27,NNW,333,1.0,2.0,87,0.00,,---,0.00,VWS V14.01,2013-01-26 15:50:00,
2013-01-26 10:55:00,26.2,22.9,30.27,NW,307,3.0,4.0,87,0.00,,---,0.00,VWS V14.01,2013-01-26 15:55:00,
2013-01-26 11:00:00,26.4,22.8,30.27,NW,311,2.0,3.0,86,0.00,,---,0.00,VWS V14.01,2013-01-26 16:00:00,
2013-01-26 11:05:00,26.6,23.0,30.26,NW,311,2.0,2.0,86,0.00,,---,0.00,VWS V14.01,2013-01-26 16:05:00,
2013-01-26 11:10:00,26.8,23.2,30.27,NW,318,1.0,3.0,86,0.00,,---,0.00,VWS V14.01,2013-01-26 16:10:00,
2013-01-26 11:15:00,26.9,23.0,30.26,West,271,3.0,4.0,85,0.00,,---,0.00,VWS V14.01,2013-01-26 16:15:00,
2013-01-26 11:20:00,27.0,23.1,30.26,NNW,327,5.0,5.0,85,0.00,,---,0.00,VWS V14.01,2013-01-26 16:20:00,
2013-01-26 11:25:00,27.2,23.0,30.26,WNW,295,5.0,7.0,84,0.00,,---,0.00,VWS V14.01,2013-01-26 16:25:00,
2013-01-26 11:30:00,27.3,23.1,30.26,WNW,282,6.0,6.0,84,0.00,,---,0.00,VWS V14.01,2013-01-26 16:30:00,
2013-01-26 11:35:00,27.6,23.4,30.26,WNW,300,2.0,3.0,84,0.00,,---,0.00,VWS V14.01,2013-01-26 16:35:00,
2013-01-26 11:40:00,27.6,23.1,30.26,NNW,333,3.0,6.0,83,0.00,,---,0.00,VWS V14.01,2013-01-26 16:40:00,
2013-01-26 11:45:00,27.6,23.1,30.26,West,274,4.0,7.0,83,0.00,,---,0.00,VWS V14.01,2013-01-26 16:45:00,
2013-01-26 11:50:00,27.7,23.2,30.25,WNW,303,3.0,7.0,83,0.00,,---,0.00,VWS V14.01,2013-01-26 16:50:00,
2013-01-26 11:55:00,27.8,23.3,30.25,WNW,298,1.0,2.0,83,0.00,,---,0.00,VWS V14.01,2013-01-26 16:55:00,
2013-01-26 12:00:00,27.9,23.4,30.25,West,276,2.0,3.0,83,0.00,,---,0.00,VWS V14.01,2013-01-26 17:00:00,
2013-01-26 12:05:00,28.0,23.2,30.25,NNW,348,3.0,5.0,82,0.00,,---,0.00,VWS V14.01,2013-01-26 17:05:00,
2013-01-26 12:10:00,28.0,23.2,30.24,WNW,286,2.0,4.0,82,0.00,,---,0.00,VWS V14.01,2013-01-26 17:10:00,
2013-01-26 12:15:00,28.1,23.3,30.24,WNW,289,4.0,4.0,82,0.00,,---,0.00,VWS V14.01,2013-01-26 17:15:00,
2013-01-26 12:20:00,28.1,23.0,30.24,NW,311,2.0,3.0,81,0.00,,---,0.00,VWS V14.01,2013-01-26 17:20:00,
2013-01-26 12:25:00,28.1,23.3,30.24,WNW,286,3.0,5.0,82,0.00,,---,0.00,VWS V14.01,2013-01-26 17:25:00,
2013-01-26 12:30:00,28.1,23.0,30.25,NW,309,4.0,5.0,81,0.00,,---,0.00,VWS V14.01,2013-01-26 17:30:00,
2013-01-26 12:35:00,28.0,23.2,30.25,West,263,7.0,8.0,82,0.00,,---,0.00,VWS V14.01,2013-01-26 17:35:00,
2013-01-26 12:40:00,28.0,23.2,30.25,NW,304,4.0,5.0,82,0.00,,---,0.00,VWS V14.01,2013-01-26 17:40:00,
2013-01-26 12:45:00,28.0,23.2,30.24,NW,326,4.0,6.0,82,0.00,,---,0.00,VWS V14.01,2013-01-26 17:45:00,
2013-01-26 12:50:00,28.0,23.2,30.25,WNW,300,3.0,5.0,82,0.00,,---,0.00,VWS V14.01,2013-01-26 17:50:00,
2013-01-26 12:55:00,28.0,23.2,30.24,NNW,342,2.0,5.0,82,0.00,,---,0.00,VWS V14.01,2013-01-26 17:55:00,
2013-01-26 13:00:00,28.0,22.9,30.24,NW,315,3.0,4.0,81,0.00,,---,0.00,VWS V14.01,2013-01-26 18:00:00,
2013-01-26 13:05:00,28.1,23.3,30.25,NW,304,3.0,5.0,82,0.00,,---,0.00,VWS V14.01,2013-01-26 18:05:00,
2013-01-26 13:10:00,28.1,23.0,30.25,North,355,2.0,2.0,81,0.00,,---,0.00,VWS V14.01,2013-01-26 18:10:00,
2013-01-26 13:15:00,28.3,23.2,30.25,WNW,286,3.0,3.0,81,0.00,,---,0.00,VWS V14.01,2013-01-26 18:15:00,
2013-01-26 13:20:00,28.4,23.0,30.25,WNW,282,5.0,5.0,80,0.00,,---,0.00,VWS V14.01,2013-01-26 18:20:00,
2013-01-26 13:25:00,28.4,22.7,30.25,WNW,294,2.0,4.0,79,0.00,,---,0.00,VWS V14.01,2013-01-26 18:25:00,
2013-01-26 13:30:00,28.5,23.1,30.25,WNW,302,3.0,4.0,80,0.00,,---,0.00,VWS V14.01,2013-01-26 18:30:00,
2013-01-26 13:35:00,28.7,23.0,30.25,North,9,7.0,7.0,79,0.00,,---,0.00,VWS V14.01,2013-01-26 18:35:00,
2013-01-26 13:40:00,28.7,23.0,30.25,WNW,294,3.0,3.0,79,0.00,,---,0.00,VWS V14.01,2013-01-26 18:40:00,
2013-01-26 13:45:00,28.7,23.0,30.25,NW,318,3.0,3.0,79,0.00,,---,0.00,VWS V14.01,2013-01-26 18:45:00,
2013-01-26 13:50:00,28.5,22.8,30.25,WNW,303,3.0,4.0,79,0.00,,---,0.00,VWS V14.01,2013-01-26 18:50:00,
2013-01-26 13:55:00,28.5,22.8,30.26,North,355,7.0,8.0,79,0.00,,---,0.00,VWS V14.01,2013-01-26 18:55:00,
2013-01-26 14:00:00,28.5,23.1,30.25,WNW,294,4.0,5.0,80,0.00,,---,0.00,VWS V14.01,2013-01-26 19:00:00,
2013-01-26 14:05:00,28.7,23.0,30.25,NW,321,3.0,5.0,79,0.00,,---,0.00,VWS V14.01,2013-01-26 19:05:00,
2013-01-26 14:10:00,28.7,23.3,30.26,WNW,289,1.0,3.0,80,0.00,,---,0.00,VWS V14.01,2013-01-26 19:10:00,
2013-01-26 14:15:00,28.7,23.6,30.26,NW,314,4.0,6.0,81,0.00,,---,0.00,VWS V14.01,2013-01-26 19:15:00,
2013-01-26 14:20:00,28.8,23.7,30.26,NW,311,4.0,4.0,81,0.00,,---,0.00,VWS V14.01,2013-01-26 19:20:00,
2013-01-26 14:25:00,28.8,23.4,30.26,NW,325,2.0,3.0,80,0.00,,---,0.00,VWS V14.01,2013-01-26 19:25:00,
2013-01-26 14:30:00,28.7,23.3,30.26,WNW,282,4.0,6.0,80,0.00,,---,0.00,VWS V14.01,2013-01-26 19:30:00,
2013-01-26 14:35:00,28.8,22.8,30.26,NW,311,4.0,8.0,78,0.00,,---,0.00,VWS V14.01,2013-01-26 19:35:00,
2013-01-26 14:40:00,28.9,23.2,30.26,West,277,3.0,7.0,79,0.00,,---,0.00,VWS V14.01,2013-01-26 19:40:00,
2013-01-26 14:45:00,29.1,23.4,30.26,WNW,300,3.0,3.0,79,0.00,,---,0.00,VWS V14.01,2013-01-26 19:45:00,
2013-01-26 14:50:00,29.2,23.2,30.26,WNW,285,8.0,9.0,78,0.00,,---,0.00,VWS V14.01,2013-01-26 19:50:00,
2013-01-26 14:55:00,29.2,23.2,30.26,West,281,4.0,4.0,78,0.00,,---,0.00,VWS V14.01,2013-01-26 19:55:00,
2013-01-26 15:00:00,29.2,22.9,30.27,NW,319,3.0,5.0,77,0.00,,---,0.00,VWS V14.01,2013-01-26 20:00:00,
2013-01-26 15:05:00,29.2,23.2,30.27,NW,314,0.0,3.0,78,0.00,,---,0.00,VWS V14.01,2013-01-26 20:05:00,
2013-01-26 15:10:00,29.2,22.9,30.27,NW,313,4.0,4.0,77,0.00,,---,0.00,VWS V14.01,2013-01-26 20:10:00,
2013-01-26 15:15:00,28.9,22.6,30.27,West,280,6.0,6.0,77,0.00,,---,0.00,VWS V14.01,2013-01-26 20:15:00,
2013-01-26 15:20:00,28.8,22.2,30.27,NW,317,10.0,10.0,76,0.00,,---,0.00,VWS V14.01,2013-01-26 20:20:00,
2013-01-26 15:25:00,28.9,22.3,30.27,West,279,4.0,4.0,76,0.00,,---,0.00,VWS V14.01,2013-01-26 20:25:00,
2013-01-26 15:30:00,28.9,22.3,30.28,WNW,288,5.0,5.0,76,0.00,,---,0.00,VWS V14.01,2013-01-26 20:30:00,
2013-01-26 15:35:00,28.9,22.3,30.28,NW,309,4.0,4.0,76,0.00,,---,0.00,VWS V14.01,2013-01-26 20:35:00,
2013-01-26 15:40:00,28.8,22.2,30.28,NW,313,3.0,5.0,76,0.00,,---,0.00,VWS V14.01,2013-01-26 20:40:00,
2013-01-26 15:45:00,28.8,22.5,30.29,WNW,294,3.0,5.0,77,0.00,,---,0.00,VWS V14.01,2013-01-26 20:45:00,
2013-01-26 15:50:00,28.7,22.7,30.29,NW,311,5.0,7.0,78,0.00,,---,0.00,VWS V14.01,2013-01-26 20:50:00,
2013-01-26 15:55:00,28.6,22.0,30.29,NW,320,6.0,8.0,76,0.00,,---,0.00,VWS V14.01,2013-01-26 20:55:00,
2013-01-26 16:00:00,28.5,21.9,30.29,NW,317,6.0,6.0,76,0.00,,---,0.00,VWS V14.01,2013-01-26 21:00:00,
2013-01-26 16:05:00,28.5,21.9,30.29,NNW,327,6.0,8.0,76,0.00,,---,0.00,VWS V14.01,2013-01-26 21:05:00,
2013-01-26 16:10:00,28.5,22.2,30.29,WNW,301,3.0,4.0,77,0.00,,---,0.00,VWS V14.01,2013-01-26 21:10:00,
2013-01-26 16:15:00,28.5,21.6,30.29,NNW,347,5.0,6.0,75,0.00,,---,0.00,VWS V14.01,2013-01-26 21:15:00,
2013-01-26 16:20:00,28.4,21.8,30.30,NW,308,5.0,7.0,76,0.00,,---,0.00,VWS V14.01,2013-01-26 21:20:00,
2013-01-26 16:25:00,28.3,21.4,30.30,NW,306,10.0,10.0,75,0.00,,---,0.00,VWS V14.01,2013-01-26 21:25:00,
2013-01-26 16:30:00,28.1,21.5,30.30,NNW,334,5.0,6.0,76,0.00,,---,0.00,VWS V14.01,2013-01-26 21:30:00,
2013-01-26 16:35:00,28.0,22.0,30.31,NNW,330,4.0,6.0,78,0.00,,---,0.00,VWS V14.01,2013-01-26 21:35:00,
2013-01-26 16:40:00,28.0,22.0,30.31,WNW,290,3.0,7.0,78,0.00,,---,0.00,VWS V14.01,2013-01-26 21:40:00,
2013-01-26 16:45:00,27.9,21.9,30.31,WNW,297,4.0,4.0,78,0.00,,---,0.00,VWS V14.01,2013-01-26 21:45:00,
2013-01-26 16:50:00,27.8,22.1,30.31,West,280,7.0,7.0,79,0.00,,---,0.00,VWS V14.01,2013-01-26 21:50:00,
2013-01-26 16:55:00,27.8,22.1,30.31,WNW,286,5.0,6.0,79,0.00,,---,0.00,VWS V14.01,2013-01-26 21:55:00,
2013-01-26 17:00:00,27.7,21.8,30.32,WNW,283,2.0,6.0,78,0.00,,---,0.00,VWS V14.01,2013-01-26 22:00:00,
2013-01-26 17:05:00,27.7,22.0,30.32,West,267,7.0,7.0,79,0.00,,---,0.00,VWS V14.01,2013-01-26 22:05:00,
2013-01-26 17:10:00,27.6,21.6,30.32,NNW,344,3.0,4.0,78,0.00,,---,0.00,VWS V14.01,2013-01-26 22:10:00,
2013-01-26 17:15:00,27.5,21.5,30.32,WNW,292,4.0,4.0,78,0.00,,---,0.00,VWS V14.01,2013-01-26 22:15:00,
2013-01-26 17:20:00,27.5,21.2,30.32,WNW,302,2.0,5.0,77,0.00,,---,0.00,VWS V14.01,2013-01-26 22:20:00,
2013-01-26 17:25:00,27.4,21.1,30.32,West,280,2.0,3.0,77,0.00,,---,0.00,VWS V14.01,2013-01-26 22:25:00,
2013-01-26 17:30:00,27.3,21.4,30.33,WNW,294,8.0,8.0,78,0.00,,---,0.00,VWS V14.01,2013-01-26 22:30:00,
2013-01-26 17:35:00,27.3,21.1,30.32,WNW,294,5.0,6.0,77,0.00,,---,0.00,VWS V14.01,2013-01-26 22:35:00,
2013-01-26 17:40:00,27.2,21.0,30.33,NW,310,5.0,8.0,77,0.00,,---,0.00,VWS V14.01,2013-01-26 22:40:00,
2013-01-26 17:45:00,27.2,21.3,30.33,NW,305,3.0,5.0,78,0.00,,---,0.00,VWS V14.01,2013-01-26 22:45:00,
2013-01-26 17:50:00,27.1,21.2,30.33,WNW,290,3.0,5.0,78,0.00,,---,0.00,VWS V14.01,2013-01-26 22:50:00,
2013-01-26 17:55:00,27.0,21.4,30.33,NW,305,5.0,6.0,79,0.00,,---,0.00,VWS V14.01,2013-01-26 22:55:00,
2013-01-26 18:00:00,27.0,21.4,30.33,WNW,298,3.0,6.0,79,0.00,,---,0.00,VWS V14.01,2013-01-26 23:00:00,
2013-01-26 18:05:00,27.0,21.4,30.34,WNW,284,4.0,4.0,79,0.00,,---,0.00,VWS V14.01,2013-01-26 23:05:00,
2013-01-26 18:10:00,27.0,21.4,30.34,NNW,341,6.0,7.0,79,0.00,,---,0.00,VWS V14.01,2013-01-26 23:10:00,
2013-01-26 18:15:00,27.0,21.4,30.34,WNW,292,8.0,8.0,79,0.00,,---,0.00,VWS V14.01,2013-01-26 23:15:00,
2013-01-26 18:20:00,27.0,21.7,30.35,NNW,332,5.0,5.0,80,0.00,,---,0.00,VWS V14.01,2013-01-26 23:20:00,
2013-01-26 18:25:00,27.0,21.7,30.35,NW,307,3.0,3.0,80,0.00,,---,0.00,VWS V14.01,2013-01-26 23:25:00,
2013-01-26 18:30:00,26.9,21.6,30.35,NE,39,9.0,9.0,80,0.00,,---,0.00,VWS V14.01,2013-01-26 23:30:00,
2013-01-26 18:35:00,26.9,21.6,30.36,WNW,294,4.0,4.0,80,0.00,,---,0.00,VWS V14.01,2013-01-26 23:35:00,
2013-01-26 18:40:00,26.9,21.6,30.35,NNW,336,5.0,5.0,80,0.00,,---,0.00,VWS V14.01,2013-01-26 23:40:00,
2013-01-26 18:45:00,26.8,21.2,30.35,North,360,4.0,4.0,79,0.00,,---,0.00,VWS V14.01,2013-01-26 23:45:00,
2013-01-26 18:50:00,26.7,21.1,30.36,NNW,327,4.0,6.0,79,0.00,,---,0.00,VWS V14.01,2013-01-26 23:50:00,
2013-01-26 18:55:00,26.6,20.7,30.36,NNW,346,4.0,4.0,78,0.00,,---,0.00,VWS V14.01,2013-01-26 23:55:00,
2013-01-26 19:00:00,26.6,20.7,30.36,WNW,297,4.0,4.0,78,0.00,,---,0.00,VWS V14.01,2013-01-27 00:00:00,
2013-01-26 19:05:00,26.5,20.6,30.36,WNW,297,5.0,7.0,78,0.00,,---,0.00,VWS V14.01,2013-01-27 00:05:00,
2013-01-26 19:10:00,26.4,20.5,30.37,NW,324,4.0,6.0,78,0.00,,---,0.00,VWS V14.01,2013-01-27 00:10:00,
2013-01-26 19:15:00,26.4,20.8,30.37,NW,308,3.0,4.0,79,0.00,,---,0.00,VWS V14.01,2013-01-27 00:15:00,
2013-01-26 19:20:00,26.3,20.4,30.37,West,264,5.0,5.0,78,0.00,,---,0.00,VWS V14.01,2013-01-27 00:20:00,
2013-01-26 19:25:00,26.3,20.4,30.37,North,355,4.0,5.0,78,0.00,,---,0.00,VWS V14.01,2013-01-27 00:25:00,
2013-01-26 19:30:00,26.3,20.4,30.38,NNW,334,4.0,9.0,78,0.00,,---,0.00,VWS V14.01,2013-01-27 00:30:00,
2013-01-26 19:35:00,26.3,20.4,30.38,NW,315,4.0,6.0,78,0.00,,---,0.00,VWS V14.01,2013-01-27 00:35:00,
2013-01-26 19:40:00,26.3,20.4,30.38,NNW,337,7.0,7.0,78,0.00,,---,0.00,VWS V14.01,2013-01-27 00:40:00,
2013-01-26 19:45:00,26.2,20.6,30.38,NNW,336,5.0,5.0,79,0.00,,---,0.00,VWS V14.01,2013-01-27 00:45:00,
2013-01-26 19:49:00,26.2,20.3,30.38,NW,310,4.0,5.0,78,0.00,,---,0.00,VWS V14.01,2013-01-27 00:49:00,
2013-01-26 19:54:00,26.1,20.5,30.38,North,360,9.0,9.0,79,0.00,,---,0.00,VWS V14.01,2013-01-27 00:54:00,
2013-01-26 19:59:00,26.1,20.2,30.38,WNW,299,2.0,3.0,78,0.00,,---,0.00,VWS V14.01,2013-01-27 00:59:00,
2013-01-26 20:05:00,26.0,20.1,30.38,NNW,338,7.0,9.0,78,0.00,,---,0.00,VWS V14.01,2013-01-27 01:05:00,
2013-01-26 20:10:00,25.9,19.7,30.38,NW,317,4.0,5.0,77,0.00,,---,0.00,VWS V14.01,2013-01-27 01:10:00,
2013-01-26 20:15:00,25.8,19.9,30.38,West,276,10.0,10.0,78,0.00,,---,0.00,VWS V14.01,2013-01-27 01:15:00,
2013-01-26 20:19:00,25.6,19.7,30.39,NNW,330,12.0,12.0,78,0.00,,---,0.00,VWS V14.01,2013-01-27 01:19:00,
2013-01-26 20:24:00,25.5,19.3,30.39,NNW,338,4.0,6.0,77,0.00,,---,0.00,VWS V14.01,2013-01-27 01:24:00,
2013-01-26 20:29:00,25.4,19.5,30.39,NW,309,4.0,4.0,78,0.00,,---,0.00,VWS V14.01,2013-01-27 01:29:00,
2013-01-26 20:34:00,25.3,19.4,30.40,NW,315,4.0,4.0,78,0.00,,---,0.00,VWS V14.01,2013-01-27 01:34:00,
2013-01-26 20:39:00,25.2,19.0,30.40,NW,316,5.0,5.0,77,0.00,,---,0.00,VWS V14.01,2013-01-27 01:39:00,
2013-01-26 20:44:00,25.2,19.0,30.41,WNW,286,5.0,6.0,77,0.00,,---,0.00,VWS V14.01,2013-01-27 01:44:00,
2013-01-26 20:49:00,25.1,18.9,30.41,WNW,300,2.0,2.0,77,0.00,,---,0.00,VWS V14.01,2013-01-27 01:49:00,
2013-01-26 20:54:00,25.1,18.6,30.41,NNW,342,4.0,4.0,76,0.00,,---,0.00,VWS V14.01,2013-01-27 01:54:00,
2013-01-26 20:59:00,24.9,18.1,30.41,NW,326,5.0,10.0,75,0.00,,---,0.00,VWS V14.01,2013-01-27 01:59:00,
2013-01-26 21:04:00,24.9,18.1,30.41,WNW,302,3.0,6.0,75,0.00,,---,0.00,VWS V14.01,2013-01-27 02:04:00,
2013-01-26 21:09:00,24.8,18.3,30.42,WNW,296,4.0,4.0,76,0.00,,---,0.00,VWS V14.01,2013-01-27 02:09:00,
2013-01-26 21:14:00,24.7,17.9,30.42,WNW,298,3.0,5.0,75,0.00,,---,0.00,VWS V14.01,2013-01-27 02:14:00,
2013-01-26 21:19:00,24.7,18.2,30.43,NW,313,3.0,4.0,76,0.00,,---,0.00,VWS V14.01,2013-01-27 02:19:00,
2013-01-26 21:24:00,24.6,17.8,30.42,NNW,340,6.0,12.0,75,0.00,,---,0.00,VWS V14.01,2013-01-27 02:24:00,
2013-01-26 21:29:00,24.6,17.5,30.43,NNW,346,5.0,6.0,74,0.00,,---,0.00,VWS V14.01,2013-01-27 02:29:00,
2013-01-26 21:34:00,24.6,17.5,30.43,WNW,293,5.0,6.0,74,0.00,,---,0.00,VWS V14.01,2013-01-27 02:34:00,
2013-01-26 21:39:00,24.6,17.5,30.43,NNW,327,2.0,2.0,74,0.00,,---,0.00,VWS V14.01,2013-01-27 02:39:00,
2013-01-26 21:44:00,24.5,17.1,30.42,NW,325,5.0,7.0,73,0.00,,---,0.00,VWS V14.01,2013-01-27 02:44:00,
2013-01-26 21:49:00,24.5,17.1,30.43,NW,325,4.0,5.0,73,0.00,,---,0.00,VWS V14.01,2013-01-27 02:49:00,
2013-01-26 21:54:00,24.4,17.0,30.43,NNW,330,6.0,10.0,73,0.00,,---,0.00,VWS V14.01,2013-01-27 02:54:00,
2013-01-26 21:59:00,24.4,16.7,30.44,NW,319,3.0,5.0,72,0.00,,---,0.00,VWS V14.01,2013-01-27 02:59:00,
2013-01-26 22:04:00,24.3,16.6,30.44,WNW,298,3.0,6.0,72,0.00,,---,0.00,VWS V14.01,2013-01-27 03:04:00,
2013-01-26 22:09:00,24.3,16.6,30.44,WNW,286,3.0,7.0,72,0.00,,---,0.00,VWS V14.01,2013-01-27 03:09:00,
2013-01-26 22:14:00,24.3,16.3,30.44,NNW,340,5.0,8.0,71,0.00,,---,0.00,VWS V14.01,2013-01-27 03:14:00,
2013-01-26 22:19:00,24.3,16.3,30.44,NNW,346,2.0,6.0,71,0.00,,---,0.00,VWS V14.01,2013-01-27 03:19:00,
2013-01-26 22:24:00,24.3,15.9,30.45,NNW,338,2.0,5.0,70,0.00,,---,0.00,VWS V14.01,2013-01-27 03:24:00,
2013-01-26 22:29:00,24.2,15.5,30.45,North,355,7.0,8.0,69,0.00,,---,0.00,VWS V14.01,2013-01-27 03:29:00,
2013-01-26 22:34:00,24.2,15.5,30.45,NW,310,6.0,6.0,69,0.00,,---,0.00,VWS V14.01,2013-01-27 03:34:00,
2013-01-26 22:39:00,24.1,15.4,30.45,NW,305,3.0,5.0,69,0.00,,---,0.00,VWS V14.01,2013-01-27 03:39:00,
2013-01-26 22:44:00,24.0,15.3,30.45,NW,312,3.0,5.0,69,0.00,,---,0.00,VWS V14.01,2013-01-27 03:44:00,
2013-01-26 22:49:00,24.0,15.3,30.46,NW,317,2.0,4.0,69,0.00,,---,0.00,VWS V14.01,2013-01-27 03:49:00,
2013-01-26 22:54:00,23.9,15.2,30.46,NW,314,2.0,4.0,69,0.00,,---,0.00,VWS V14.01,2013-01-27 03:54:00,
2013-01-26 22:59:00,23.9,15.6,30.46,WNW,290,3.0,4.0,70,0.00,,---,0.00,VWS V14.01,2013-01-27 03:59:00,
2013-01-26 23:04:00,23.8,15.1,30.47,WNW,294,2.0,2.0,69,0.00,,---,0.00,VWS V14.01,2013-01-27 04:04:00,
2013-01-26 23:09:00,23.8,15.5,30.46,WNW,284,2.0,5.0,70,0.00,,---,0.00,VWS V14.01,2013-01-27 04:09:00,
2013-01-26 23:14:00,23.7,15.4,30.47,West,268,3.0,7.0,70,0.00,,---,0.00,VWS V14.01,2013-01-27 04:14:00,
2013-01-26 23:19:00,23.7,15.4,30.47,NW,304,4.0,4.0,70,0.00,,---,0.00,VWS V14.01,2013-01-27 04:19:00,
2013-01-26 23:24:00,23.6,15.3,30.47,WNW,296,2.0,3.0,70,0.00,,---,0.00,VWS V14.01,2013-01-27 04:24:00,
2013-01-26 23:29:00,23.6,15.6,30.47,WNW,300,2.0,4.0,71,0.00,,---,0.00,VWS V14.01,2013-01-27 04:29:00,
2013-01-26 23:34:00,23.6,15.3,30.47,WNW,296,2.0,4.0,70,0.00,,---,0.00,VWS V14.01,2013-01-27 04:34:00,
2013-01-26 23:39:00,23.6,15.6,30.47,NW,323,2.0,3.0,71,0.00,,---,0.00,VWS V14.01,2013-01-27 04:39:00,
2013-01-26 23:44:00,23.5,15.5,30.48,WNW,283,7.0,7.0,71,0.00,,---,0.00,VWS V14.01,2013-01-27 04:44:00,
2013-01-26 23:49:00,23.5,15.5,30.48,NNW,337,2.0,5.0,71,0.00,,---,0.00,VWS V14.01,2013-01-27 04:49:00,
2013-01-26 23:54:00,23.4,15.4,30.48,WNW,290,4.0,5.0,71,0.00,,---,0.00,VWS V14.01,2013-01-27 04:54:00,
2013-01-26 23:59:00,23.4,15.4,30.47,WNW,286,3.0,5.0,71,0.00,,---,0.00,VWS V14.01,2013-01-27 04:59:00,